This is the latest recevied weather packets stored in our database for station/object SV2JU-2. If no packets are shown the sender has not sent any weather packets the latest 10 day(s).
| Time | Temp. | Humidity | Pressure | Rain* | Wind** | Luminosity | Snow |
|---|---|---|---|---|---|---|---|
| 1788083915 | 28.89° C | 27% | 1017 hPa | 0 mm | - | - | - |
| 1788083165 | 28.89° C | 28% | 1017 hPa | 0 mm | - | - | - |
| 1788082415 | 28.89° C | 27% | 1017 hPa | 0 mm | - | - | - |
| 1788081665 | 28.89° C | 27% | 1017 hPa | 0 mm | - | - | - |
| 1788080914 | 28.89° C | 27% | 1017 hPa | 0 mm | - | - | - |
| 1788079414 | 28.89° C | 25% | 1017 hPa | 0 mm | - | - | - |
| 1788077914 | 28.89° C | 20% | 1017 hPa | 0 mm | - | - | - |
| 1788077165 | 28.33° C | 19% | 1017 hPa | 0 mm | - | - | - |
| 1788076414 | 28.33° C | 21% | 1017 hPa | 0 mm | - | - | - |
| 1788074914 | 28.89° C | 24% | 1017 hPa | 0 mm | - | - | - |
| 1788074165 | 28.89° C | 24% | 1016 hPa | 0 mm | - | - | - |
| 1788073414 | 28.89° C | 25% | 1016 hPa | 0 mm | - | - | - |
| 1788072664 | 28.89° C | 28% | 1016 hPa | 0 mm | - | - | - |
| 1788071913 | 28.33° C | 29% | 1016 hPa | 0 mm | - | - | - |
| 1788071164 | 27.22° C | 30% | 1016 hPa | 0 mm | - | - | - |
| 1788070413 | 26.11° C | 37% | 1016 hPa | 0 mm | - | - | - |
| 1788068913 | 25° C | 41% | 1016 hPa | 0 mm | - | - | - |
| 1788068164 | 24.44° C | 43% | 1016 hPa | 0 mm | - | - | - |
| 1788067414 | 23.89° C | 47% | 1016 hPa | 0 mm | - | - | - |
| 1788066664 | 23.33° C | 49% | 1016 hPa | 0 mm | - | - | - |
| 1788065913 | 23.33° C | 49% | 1016 hPa | 0 mm | - | - | - |
| 1788065164 | 23.33° C | 49% | 1016 hPa | 0 mm | - | - | - |
| 1788064413 | 23.33° C | 48% | 1016 hPa | 0 mm | - | - | - |
| 1788063664 | 23.33° C | 48% | 1016 hPa | 0 mm | - | - | - |
| 1788062913 | 23.33° C | 48% | 1016 hPa | 0 mm | - | - | - |
* Rain latest hour (hover to see other rain measurements)
** Current wind speed in m/s (hover to see current wind gust speed)